Location: Grand Lay
(47.3253°N, 0.9468°E)
Time: 08:17:53
(UTC+00:00)

Cosmos 921 Rocket - Pass Details

Date: 18 January 2026
Orbit: 564 x 620 km, 75.8° (Epoch: 16 February)

Event Time Altitude Azimuth Distance (km) Brightness Sun altitude
Exits shadow 05:21:46 64° 337° (NNW) 654 2.9 -22.4°
Drops below altitude 10° 05:25:31 10° 16° (NNE) 1,901 5.6 -21.8°
Sets 05:27:44 0° 18° (NNE) 2,796 6.6 -21.4°
